Oakes, ND

1:08 AM CDT on April 30, 2017 (GMT -0500)
Oakes

Weather History for K2D5 - October, 2013

Change the Weather History Date:

Thursday, October 3, 2013

  Actual Average (KP67) Record (KP67)
Temperature  
Mean Temperature 47 °F -  
Max Temperature 53 °F 67 °F 71 °F (1997)
Min Temperature 41 °F 40 °F 26 °F (1996)
Degree Days  
Heating Degree Days 18    
Moisture  
Dew Point 46 °F    
Average Humidity 92    
Maximum Humidity 100    
Minimum Humidity 67    
Precipitation  
Precipitation 0.08 in - - ()
Sea Level Pressure  
Sea Level Pressure 29.98 in    
Wind  
Wind Speed 10 mph (NNE)    
Max Wind Speed 22 mph    
Max Gust Speed 26 mph    
Visibility 10 miles    
Events Rain    
Averages and records for this station are not official NWS values.
T = Trace of Precipitation, MM = Missing Value Source: NWS Daily Summary

Daily Weather History Graph

Daily Weather History Graph

Search for Another Location

Airport or City:

Trip Planner

Search our weather history database for the weather conditions in past years. The results will help you decide how hot, cold, wet, or windy it might be!

Date:

Astronomy

Oct. 03, 2013 Rise Set
Actual Time 7:33 AM CDT 7:07 PM CDT
Civil Twilight 7:03 AM CDT 7:37 PM CDT
Nautical Twilight 6:29 AM CDT 8:12 PM CDT
Astronomical Twilight 5:53 AM CDT 8:47 PM CDT
Moon 6:05 AM CDT (10/3) 6:18 PM CDT (10/3)
Length of Visible Light 12h 33m
Length of Day
11h 34m
Waning Crescent, 2% of the Moon is Illuminated
Oct 3
Waning Crescent
Oct 4
New
Oct 11
First Quarter
Oct 18
Full
Oct 26
Last Quarter

Hourly Weather History & Observations

Time (CDT) Temp. Windchill Dew Point Humidity Pressure Visibility Wind Dir Wind Speed Gust Speed Precip Events Conditions
12:15 AM 41.0 °F 36.4 °F 41.0 °F 100% 29.96 in 10.0 mi NNE 6.9 mph - N/A   Clear
12:35 AM 42.8 °F 38.6 °F 42.8 °F 100% 29.95 in 10.0 mi North 6.9 mph - N/A   Clear
12:55 AM 41.0 °F 38.0 °F 41.0 °F 100% 29.95 in 10.0 mi NE 4.6 mph - N/A   Clear
1:15 AM 41.0 °F 36.4 °F 41.0 °F 100% 29.94 in 10.0 mi NNE 6.9 mph - N/A   Clear
1:35 AM 42.8 °F 39.3 °F 42.8 °F 100% 29.94 in 10.0 mi North 5.8 mph - N/A   Clear
1:55 AM 42.8 °F 39.3 °F 42.8 °F 100% 29.95 in 10.0 mi North 5.8 mph - N/A   Clear
2:15 AM 44.6 °F 40.7 °F 44.6 °F 100% 29.95 in 10.0 mi NNW 6.9 mph - N/A   Clear
2:35 AM 46.4 °F 42.4 °F 46.4 °F 100% 29.95 in 10.0 mi North 8.1 mph - N/A   Clear
2:55 AM 46.4 °F 42.9 °F 46.4 °F 100% 29.94 in 10.0 mi North 6.9 mph - N/A   Clear
3:15 AM 44.6 °F 39.7 °F 44.6 °F 100% 29.93 in 10.0 mi North 9.2 mph - N/A   Clear
3:35 AM 44.6 °F 40.2 °F 44.6 °F 100% 29.93 in 10.0 mi North 8.1 mph - N/A   Clear
3:55 AM 46.4 °F 41.9 °F 46.4 °F 100% 29.94 in 10.0 mi North 9.2 mph - N/A   Partly Cloudy
4:15 AM 46.4 °F 41.9 °F 46.4 °F 100% 29.94 in 10.0 mi North 9.2 mph - N/A   Partly Cloudy
4:35 AM 46.4 °F 41.9 °F 46.4 °F 100% 29.93 in 10.0 mi NNE 9.2 mph - N/A   Clear
4:55 AM 46.4 °F 42.9 °F 46.4 °F 100% 29.94 in 10.0 mi NE 6.9 mph - N/A   Partly Cloudy
5:15 AM 46.4 °F 42.4 °F 46.4 °F 100% 29.94 in 10.0 mi NNE 8.1 mph - N/A   Scattered Clouds
5:35 AM 46.4 °F 45.2 °F 46.4 °F 100% 29.97 in 10.0 mi NNE 3.5 mph - N/A   Clear
5:55 AM 44.6 °F 40.7 °F 44.6 °F 100% 29.97 in 10.0 mi NNE 6.9 mph - N/A   Clear
6:15 AM 46.4 °F 43.5 °F 46.4 °F 100% 29.95 in 10.0 mi NNE 5.8 mph - N/A   Clear
6:35 AM 46.4 °F 42.4 °F 46.4 °F 100% 29.95 in 10.0 mi NNE 8.1 mph - N/A   Clear
6:55 AM 46.4 °F 42.9 °F 46.4 °F 100% 29.95 in 10.0 mi North 6.9 mph - N/A   Clear
7:15 AM 46.4 °F 43.5 °F 46.4 °F 100% 29.96 in 10.0 mi North 5.8 mph - N/A   Clear
7:35 AM 46.4 °F 41.9 °F 46.4 °F 100% 29.98 in 10.0 mi NNW 9.2 mph - N/A   Clear
7:55 AM 46.4 °F 41.1 °F 46.4 °F 100% 29.99 in 10.0 mi NW 11.5 mph - N/A   Clear
8:15 AM 46.4 °F 40.7 °F 46.4 °F 100% 29.99 in 10.0 mi North 12.7 mph - N/A   Scattered Clouds
8:35 AM 48.2 °F - 48.2 °F 100% 29.99 in 10.0 mi North 11.5 mph - N/A   Scattered Clouds
8:55 AM 48.2 °F - 48.2 °F 100% 29.99 in 10.0 mi North 11.5 mph - N/A   Clear
9:15 AM 48.2 °F - 48.2 °F 100% 29.98 in 10.0 mi North 10.4 mph - N/A   Scattered Clouds
9:35 AM 48.2 °F - 48.2 °F 100% 30.00 in 10.0 mi NNE 10.4 mph - N/A Rain Light Rain
9:55 AM 48.2 °F - 48.2 °F 100% 29.98 in 10.0 mi NNE 15.0 mph 18.4 mph N/A   Scattered Clouds
10:15 AM 48.2 °F - 48.2 °F 100% 29.98 in 10.0 mi North 12.7 mph - N/A   Scattered Clouds
10:35 AM 48.2 °F - 48.2 °F 100% 29.96 in 10.0 mi NNE 18.4 mph 23.0 mph N/A Rain Light Rain
10:55 AM 50.0 °F - 48.2 °F 94% 29.96 in 10.0 mi NNE 16.1 mph 25.3 mph N/A   Mostly Cloudy
11:15 AM 50.0 °F - 48.2 °F 94% 29.97 in 10.0 mi NNE 13.8 mph 17.3 mph N/A   Mostly Cloudy
11:35 AM 51.8 °F - 48.2 °F 88% 29.97 in 10.0 mi NNE 15.0 mph 19.6 mph N/A   Overcast
11:55 AM 51.8 °F - 48.2 °F 88% 29.96 in 10.0 mi NNE 21.9 mph 25.3 mph N/A   Overcast
12:15 PM 53.6 °F - 46.4 °F 77% 29.98 in 10.0 mi NNE 11.5 mph - N/A   Overcast
12:35 PM 53.6 °F - 46.4 °F 77% 29.99 in 10.0 mi NE 12.7 mph 20.7 mph N/A   Overcast
12:55 PM 53.6 °F - 46.4 °F 77% 29.99 in 10.0 mi NE 15.0 mph - N/A   Overcast
1:15 PM 53.6 °F - 46.4 °F 77% 29.99 in 10.0 mi NNE 13.8 mph - N/A   Overcast
1:35 PM 53.6 °F - 46.4 °F 77% 29.99 in 10.0 mi NNE 15.0 mph 20.7 mph N/A   Overcast
1:55 PM 53.6 °F - 46.4 °F 77% 29.96 in 10.0 mi North 18.4 mph 24.2 mph N/A   Overcast
2:15 PM 53.6 °F - 46.4 °F 77% 29.96 in 10.0 mi North 17.3 mph 24.2 mph N/A   Overcast
2:35 PM 51.8 °F - 44.6 °F 76% 29.94 in 10.0 mi North 19.6 mph 26.5 mph N/A   Mostly Cloudy
2:55 PM 53.6 °F - 44.6 °F 72% 29.95 in 10.0 mi North 16.1 mph - N/A   Overcast
3:15 PM 53.6 °F - 44.6 °F 72% 29.97 in 10.0 mi North 17.3 mph 21.9 mph N/A   Overcast
3:35 PM 51.8 °F - 41.0 °F 67% 29.97 in 10.0 mi North 16.1 mph 24.2 mph N/A   Overcast
3:55 PM 51.8 °F - 42.8 °F 71% 29.98 in 10.0 mi North 13.8 mph 23.0 mph N/A Rain Light Rain
4:15 PM 50.0 °F - 46.4 °F 87% 29.98 in 6.0 mi North 13.8 mph - 0.02 in Rain Rain
4:35 PM 50.0 °F - 46.4 °F 87% 29.98 in 10.0 mi North 12.7 mph - 0.02 in   Overcast
4:55 PM 50.0 °F - 46.4 °F 87% 29.99 in 10.0 mi NNE 13.8 mph - 0.02 in   Overcast
5:15 PM 50.0 °F - 44.6 °F 82% 30.00 in 10.0 mi North 15.0 mph 21.9 mph N/A   Overcast
5:35 PM 50.0 °F - 46.4 °F 87% 30.01 in 10.0 mi North 12.7 mph - N/A   Overcast
5:55 PM 50.0 °F - 46.4 °F 87% 30.01 in 10.0 mi NNE 12.7 mph 17.3 mph N/A   Overcast
6:15 PM 50.0 °F - 44.6 °F 82% 30.01 in 10.0 mi North 15.0 mph 19.6 mph N/A   Overcast
6:35 PM 48.2 °F - 46.4 °F 93% 30.01 in 10.0 mi North 15.0 mph - N/A Rain Light Rain
6:55 PM 48.2 °F - 46.4 °F 93% 30.02 in 10.0 mi North 15.0 mph - N/A Rain Light Rain
7:15 PM 48.2 °F - 46.4 °F 93% 30.02 in 8.0 mi North 15.0 mph 20.7 mph 0.01 in Rain Light Rain
7:35 PM 48.2 °F - 46.4 °F 93% 30.03 in 5.0 mi North 12.7 mph 19.6 mph 0.05 in Rain Rain
7:55 PM 48.2 °F - 46.4 °F 93% 30.04 in 10.0 mi North 12.7 mph - 0.06 in Rain Light Rain
8:15 PM 48.2 °F - 46.4 °F 93% 30.06 in 10.0 mi North 12.7 mph - N/A   Mostly Cloudy
8:35 PM 48.2 °F - 46.4 °F 93% 30.06 in 10.0 mi North 15.0 mph 21.9 mph N/A Rain Light Rain
8:55 PM 48.2 °F - 46.4 °F 93% 30.06 in 10.0 mi NNE 13.8 mph 20.7 mph N/A Rain Light Rain
9:15 PM 48.2 °F - 46.4 °F 93% 30.06 in 10.0 mi NNE 13.8 mph - N/A Rain Light Rain
9:35 PM 48.2 °F - 46.4 °F 93% 30.06 in 10.0 mi NNE 15.0 mph - N/A   Overcast
9:55 PM 48.2 °F - 46.4 °F 93% 30.07 in 10.0 mi NNE 13.8 mph - N/A   Overcast
10:15 PM 48.2 °F - 46.4 °F 93% 30.06 in 10.0 mi NNE 16.1 mph - N/A   Overcast
10:35 PM 48.2 °F - 44.6 °F 87% 30.07 in 10.0 mi NNE 13.8 mph 21.9 mph N/A   Overcast
11:35 PM 48.2 °F - 42.8 °F 82% 30.07 in 10.0 mi NNE 18.4 mph 25.3 mph N/A   Overcast
11:55 PM 48.2 °F - 42.8 °F 82% 30.07 in 10.0 mi NNE 18.4 mph - N/A   Overcast